Wind_Speed
11 11 10 9 9 8 8 8 8 8 8 8 9 10 11 12 14 15 15 16 16 17 17 16 16 15 15 14 13 13 13 12 13 14 16 18 19 19 19 18 17 16 14
13 13 12 12 11 10 10 10 10 9 10 10 10 11 12 13 14 15 16 17 17 18 19 19 19 19 18 18 17 16 15 14 14 14 16 17 19 20 21 20 19 18 16
15 15 14 14 14 13 13 13 12 12 11 11 11 12 12 13 14 15 16 17 18 19 19 20 20 21 21 21 20 20 18 17 16 16 16 17 19 20 21 22 21 20 18
17 16 16 16 16 16 15 16 15 14 14 14 13 13 14 14 15 16 16 17 18 19 20 21 21 22 22 23 23 22 22 21 20 18 18 18 20 20 21 23 23 22 20
19 18 18 18 18 17 17 17 17 17 16 16 16 16 16 16 16 17 18 18 19 19 20 21 21 22 22 23 23 23 23 23 22 21 20 19 20 21 22 23 24 23 22
20 20 19 19 19 19 19 19 19 18 19 19 18 18 18 18 18 18 19 19 20 20 20 21 22 22 22 22 23 23 24 24 23 23 22 21 21 22 23 23 24 23 23
22 22 21 21 21 21 21 20 21 21 21 21 21 20 20 20 20 20 20 21 21 21 22 22 22 22 23 23 23 23 24 24 23 23 23 23 22 22 23 24 24 24 23
24 24 24 22 22 22 21 21 22 22 22 22 22 23 23 23 23 22 22 22 22 22 22 23 23 23 23 23 23 24 24 24 24 24 24 24 24 23 23 24 25 25 24
26 26 25 24 23 22 22 23 23 23 23 23 23 23 24 25 24 23 24 24 24 24 24 24 23 23 23 23 23 24 24 24 24 24 24 24 24 24 25 25 25 25 25
26 25 24 24 23 23 23 23 23 23 23 23 24 25 25 26 26 25 25 26 25 25 25 25 24 24 23 23 23 24 25 25 25 24 24 24 25 25 25 26 26 26 26
27 25 24 24 23 23 22 22 22 22 23 24 24 25 26 26 26 26 26 25 25 26 25 26 26 25 24 24 24 24 25 25 26 25 25 24 24 25 26 27 27 27 26
26 25 23 23 23 21 21 22 22 23 23 23 24 24 25 25 26 25 25 25 25 25 25 26 26 26 25 24 24 24 25 26 26 26 26 25 25 25 26 26 27 28 28
25 23 22 21 20 20 20 21 21 22 22 23 23 23 24 24 24 24 24 24 25 25 25 26 26 26 26 25 24 24 24 25 26 27 26 26 26 25 25 26 26 27 28
21 20 19 18 19 19 20 20 21 21 21 21 22 22 23 23 23 23 23 24 24 25 26 26 27 27 26 25 24 24 23 24 25 26 27 26 26 25 25 25 25 26 26
17 15 15 16 17 19 19 20 20 20 20 21 21 21 22 22 23 23 23 24 24 26 26 27 27 28 27 26 25 24 24 24 24 25 26 26 25 25 25 25 25 25 25
13 13 15 16 17 18 19 20 20 20 20 21 21 22 22 22 22 22 23 24 24 25 26 27 27 27 28 27 26 25 24 23 24 25 25 25 25 25 25 25 25 25 25
12 14 16 17 18 19 19 19 20 20 20 21 21 22 22 22 22 22 22 23 23 23 24 26 26 26 27 28 27 26 25 24 24 24 25 25 25 25 25 25 25 26 25
14 15 17 17 18 19 19 19 20 20 21 21 21 21 21 21 21 21 21 21 22 21 22 24 25 26 27 28 28 28 27 26 25 25 25 25 25 25 25 25 25 25 25
15 16 17 18 19 20 20 20 20 20 21 21 21 21 21 22 21 22 21 21 21 21 22 23 24 25 27 28 27 29 29 29 28 26 26 25 25 24 24 24 24 25 25
15 16 17 18 19 20 20 20 19 20 20 21 21 21 21 22 22 22 21 21 21 21 21 21 22 23 25 27 28 28 30 31 31 29 28 27 26 25 25 24 25 25 25
15 16 17 18 19 20 20 20 20 20 20 21 21 21 20 21 22 22 22 22 21 22 22 21 21 22 24 26 28 29 30 32 32 31 31 30 28 27 27 26 26 26 26
16 17 18 19 20 20 20 20 20 20 20 21 21 21 21 21 21 22 22 22 21 21 21 21 22 22 23 24 25 27 29 32 33 33 32 32 31 31 31 30 29 29 28
17 18 19 20 20 20 20 20 20 20 21 21 21 21 21 21 21 22 22 22 22 22 22 22 22 21 21 22 22 23 26 28 31 32 33 34 34 34 34 33 32 32 31
18 19 20 21 21 22 22 22 22 22 22 22 21 21 22 22 21 21 21 21 22 22 22 22 23 23 22 22 23 23 23 25 27 30 32 34 35 36 37 36 36 35 35
19 20 21 22 22 23 23 23 22 22 22 22 22 22 22 21 21 21 21 21 21 22 22 23 23 22 22 22 22 23 24 24 25 28 30 31 33 35 36 37 38 38 39
18 20 21 22 22 22 22 22 22 22 22 22 22 21 21 21 20 20 20 20 21 21 21 22 22 22 22 22 22 22 23 24 24 26 28 29 31 34 35 36 37 38 39
Wind_Direction
265 268 269 270 274 278 281 285 283 277 276 273 270 266 263 260 259 257 256 253 251 249 248 245 241 239 238 238 239 240 240 239 240 239 238 235 234 231 229 230 230 232 237
260 263 265 266 269 274 275 278 279 277 276 275 272 270 268 265 263 260 257 254 252 250 249 247 245 243 243 243 242 243 243 243 243 243 241 239 236 233 230 230 230 232 236
257 260 260 261 264 269 272 272 275 276 276 275 274 274 273 270 267 264 260 256 253 251 250 248 246 245 245 246 246 246 245 245 246 246 245 243 241 234 232 231 231 232 236
255 257 257 260 263 266 268 268 271 272 274 275 276 277 277 275 272 269 263 259 255 253 251 250 249 248 248 248 248 248 247 246 246 247 246 245 242 239 234 233 233 234 236
254 254 255 258 261 265 265 265 269 272 273 275 277 279 279 278 275 272 268 263 259 256 254 253 252 251 251 250 250 249 248 247 247 247 247 246 243 241 237 235 234 235 238
254 253 254 256 260 263 263 265 267 270 271 273 276 278 278 278 277 274 271 267 263 259 256 254 254 253 252 252 252 250 249 248 247 247 247 245 243 242 238 237 236 237 239
253 253 254 257 260 261 262 263 265 268 271 272 273 276 278 279 277 276 274 271 267 262 258 256 255 254 254 253 252 250 249 248 247 246 246 245 243 242 239 237 238 238 240
253 254 256 257 258 261 261 262 263 266 270 272 271 273 276 278 277 275 274 272 270 267 263 259 257 255 255 255 252 250 248 247 246 245 244 244 242 241 239 237 238 240 241
253 253 255 256 257 259 260 263 264 266 270 271 272 274 276 277 278 276 272 271 270 267 264 260 257 256 255 254 253 250 247 244 243 244 244 242 241 240 239 238 239 240 241
253 255 254 254 255 258 261 264 266 267 270 274 274 273 273 276 275 277 275 271 268 265 263 259 256 255 255 254 253 250 246 243 242 243 243 242 241 240 240 239 240 241 242
256 254 253 253 255 257 261 265 267 269 271 274 275 275 274 274 274 275 276 272 268 263 260 256 254 254 255 254 254 251 247 244 243 243 243 242 242 241 242 241 241 242 243
254 251 253 253 255 259 263 267 269 270 271 272 273 274 274 273 272 275 275 273 271 264 260 256 253 252 253 254 254 253 249 246 245 244 243 242 242 242 242 242 242 243 244
252 251 250 252 257 261 263 265 268 269 270 271 272 273 274 274 273 274 273 273 270 266 263 256 252 251 252 252 253 253 251 247 246 245 243 242 243 243 243 243 243 243 244
249 251 250 254 258 262 264 266 267 269 270 271 271 271 273 272 272 272 272 272 271 267 262 258 252 250 250 251 250 251 251 249 247 245 243 243 243 243 243 243 243 244 244
248 247 249 254 258 261 263 266 268 269 270 271 271 270 271 271 271 272 271 271 271 268 263 259 253 247 247 248 248 250 250 248 246 244 243 242 242 243 243 244 244 244 244
244 245 250 255 260 262 264 265 267 268 269 270 270 269 269 270 271 271 271 270 272 269 260 257 252 249 247 247 246 247 248 246 244 243 242 242 243 244 245 245 245 244 245
246 250 256 260 263 264 264 266 267 269 270 271 271 270 269 269 270 269 271 269 270 269 260 254 252 250 249 245 244 246 245 245 244 242 243 244 244 245 246 247 247 248 247
256 259 264 265 265 266 268 270 270 270 270 271 270 269 267 267 268 268 268 267 267 268 262 255 253 251 250 246 244 245 244 244 244 242 243 243 244 246 247 248 249 249 248
265 265 266 267 268 269 271 273 273 272 272 271 270 268 266 265 266 266 265 264 265 266 263 260 254 253 250 246 244 244 243 242 242 243 243 244 245 246 248 248 249 249 249
270 268 268 270 273 273 274 273 273 273 273 271 270 269 267 265 265 264 263 263 264 264 263 262 257 253 250 247 246 245 244 243 243 244 244 245 246 247 248 248 249 249 250
276 272 271 273 274 274 272 272 273 273 272 271 270 270 268 267 265 264 263 262 264 262 262 262 261 256 252 248 247 247 244 242 242 243 244 245 246 247 248 249 250 251 251
278 275 274 274 274 274 273 274 273 272 271 271 271 271 271 270 268 265 263 261 262 261 259 260 261 260 255 252 251 248 246 243 242 243 244 245 247 249 249 250 251 252 253
280 278 277 276 274 273 274 274 274 273 272 272 272 271 271 270 269 266 263 261 260 260 260 260 261 262 260 259 256 254 249 247 244 243 244 246 248 250 251 251 252 253 254
283 280 278 277 276 274 274 274 273 273 273 272 271 271 271 270 268 266 264 262 261 260 260 260 260 261 262 262 262 261 259 254 250 248 249 249 249 250 251 252 254 254 255
283 281 279 278 277 275 274 273 272 272 272 272 271 270 270 268 268 266 264 263 263 261 261 260 261 261 262 263 263 262 260 260 258 255 254 253 252 253 253 253 254 255 256
286 284 281 279 278 277 275 274 273 272 271 271 270 269 268 267 267 266 264 263 264 263 262 262 261 261 262 263 264 263 263 262 262 261 259 256 255 255 257 258 258 258 258
Height
5892 5892 5891 5891 5890 5890 5889 5889 5888 5888 5887 5887 5886 5886 5886 5886 5885 5885 5886 5886 5887 5888 5888 5889 5890 5891 5891 5892 5892 5893 5894 5895 5895 5896 5897 5898 5900 5902 5903 5905 5906 5908 5909
5889 5889 5889 5888 5888 5887 5887 5887 5886 5886 5885 5884 5884 5884 5883 5883 5883 5883 5883 5883 5883 5884 5885 5886 5887 5888 5889 5889 5890 5891 5891 5892 5893 5894 5895 5896 5897 5898 5900 5902 5903 5905 5906
5885 5885 5885 5885 5885 5884 5884 5884 5884 5883 5883 5882 5881 5881 5881 5880 5880 5880 5879 5879 5880 5880 5881 5882 5883 5884 5885 5886 5887 5888 5889 5890 5890 5891 5892 5893 5894 5895 5897 5898 5900 5902 5903
5881 5881 5881 5881 5881 5881 5880 5880 5880 5880 5879 5879 5878 5878 5878 5877 5877 5876 5876 5876 5876 5876 5877 5878 5878 5879 5880 5882 5883 5884 5885 5886 5887 5888 5889 5890 5891 5892 5893 5895 5897 5898 5900
5877 5877 5877 5877 5877 5877 5876 5876 5876 5876 5876 5875 5875 5874 5874 5874 5873 5873 5872 5872 5872 5872 5873 5873 5874 5875 5876 5877 5878 5879 5881 5882 5883 5884 5885 5886 5887 5888 5890 5891 5893 5895 5897
5872 5872 5872 5872 5872 5872 5872 5872 5872 5872 5871 5871 5871 5870 5870 5870 5869 5869 5868 5868 5868 5868 5868 5869 5869 5870 5871 5872 5873 5875 5876 5877 5879 5880 5881 5882 5883 5885 5886 5887 5889 5891 5893
5866 5867 5867 5867 5867 5867 5867 5868 5868 5867 5867 5867 5866 5866 5865 5865 5865 5864 5864 5864 5863 5863 5864 5864 5865 5865 5866 5867 5868 5870 5871 5872 5874 5875 5876 5878 5879 5880 5882 5883 5885 5887 5888
5860 5861 5861 5861 5862 5862 5862 5862 5862 5862 5862 5862 5862 5861 5860 5860 5860 5860 5859 5859 5859 5859 5859 5859 5860 5860 5861 5862 5863 5864 5866 5867 5869 5870 5872 5873 5875 5876 5877 5879 5881 5882 5884
5854 5854 5855 5856 5856 5856 5856 5857 5857 5857 5856 5856 5856 5856 5855 5855 5854 5854 5854 5854 5854 5854 5854 5854 5855 5855 5856 5857 5858 5859 5861 5862 5864 5865 5867 5868 5870 5871 5873 5875 5876 5878 5880
5847 5848 5849 5849 5850 5850 5850 5851 5851 5851 5851 5850 5850 5850 5850 5849 5848 5848 5848 5848 5848 5848 5848 5849 5849 5850 5851 5852 5853 5854 5855 5857 5859 5860 5862 5863 5865 5867 5868 5870 5872 5873 5875
5840 5841 5842 5843 5843 5844 5844 5845 5845 5845 5845 5844 5844 5843 5843 5843 5842 5842 5842 5842 5841 5841 5842 5843 5844 5844 5845 5846 5847 5849 5850 5852 5853 5855 5857 5858 5860 5862 5863 5865 5867 5869 5870
5831 5833 5835 5836 5837 5838 5838 5838 5838 5838 5838 5838 5837 5837 5837 5836 5836 5835 5835 5835 5835 5835 5836 5836 5837 5839 5840 5841 5842 5843 5845 5846 5848 5850 5851 5853 5855 5857 5858 5860 5862 5863 5865
5824 5826 5828 5830 5831 5832 5832 5832 5832 5832 5832 5831 5831 5831 5831 5830 5830 5830 5829 5829 5829 5829 5829 5830 5831 5832 5834 5835 5836 5838 5839 5841 5842 5844 5846 5848 5850 5851 5853 5855 5856 5858 5860
5818 5820 5822 5824 5825 5826 5826 5826 5826 5826 5825 5825 5825 5824 5824 5824 5824 5824 5823 5823 5823 5823 5823 5824 5825 5826 5828 5829 5831 5832 5833 5835 5837 5838 5840 5842 5844 5846 5848 5849 5851 5853 5854
5812 5814 5816 5818 5819 5820 5820 5820 5820 5819 5819 5819 5818 5818 5818 5818 5818 5818 5817 5817 5817 5816 5817 5817 5818 5820 5821 5823 5825 5826 5828 5830 5831 5833 5835 5837 5838 5840 5842 5844 5846 5847 5849
5808 5810 5812 5812 5813 5814 5814 5813 5813 5813 5813 5812 5812 5812 5812 5812 5811 5811 5811 5811 5810 5810 5810 5810 5811 5813 5815 5817 5819 5820 5822 5824 5825 5827 5829 5831 5833 5835 5837 5839 5840 5842 5844
5804 5806 5806 5807 5807 5808 5808 5807 5807 5807 5806 5806 5806 5806 5806 5806 5805 5805 5805 5804 5804 5803 5803 5803 5805 5807 5808 5810 5813 5814 5816 5818 5820 5822 5824 5826 5828 5829 5831 5833 5835 5837 5838
5800 5801 5801 5802 5802 5802 5801 5801 5801 5800 5800 5800 5799 5799 5799 5799 5799 5799 5799 5798 5798 5798 5798 5798 5799 5800 5802 5804 5806 5809 5810 5813 5815 5817 5818 5820 5822 5824 5826 5827 5829 5831 5832
5795 5795 5796 5796 5796 5795 5795 5794 5794 5794 5794 5793 5793 5793 5793 5793 5793 5793 5792 5792 5792 5792 5792 5792 5793 5794 5796 5797 5800 5802 5804 5806 5809 5811 5813 5815 5817 5818 5820 5822 5824 5825 5827
5789 5790 5790 5790 5789 5789 5789 5788 5788 5788 5788 5787 5787 5787 5787 5787 5787 5786 5786 5786 5786 5786 5786 5787 5787 5787 5789 5791 5793 5795 5797 5800 5802 5805 5807 5809 5811 5813 5815 5816 5818 5819 5821
5784 5784 5784 5784 5783 5783 5783 5783 5783 5782 5782 5781 5781 5781 5781 5781 5780 5781 5781 5781 5781 5781 5781 5781 5781 5782 5783 5784 5786 5788 5790 5792 5795 5798 5800 5803 5805 5807 5808 5810 5812 5813 5815
5779 5779 5778 5778 5778 5778 5778 5777 5777 5776 5776 5775 5775 5775 5775 5775 5775 5775 5775 5775 5775 5775 5775 5776 5776 5776 5777 5778 5779 5780 5782 5785 5788 5791 5793 5795 5798 5800 5801 5804 5805 5807 5808
5774 5774 5773 5772 5772 5772 5772 5771 5771 5770 5770 5769 5769 5769 5769 5769 5769 5769 5769 5769 5769 5770 5770 5771 5771 5771 5772 5772 5773 5774 5775 5777 5780 5782 5785 5787 5790 5792 5794 5796 5798 5799 5801
5769 5768 5768 5767 5766 5766 5766 5765 5765 5764 5764 5763 5762 5763 5763 5763 5763 5763 5763 5763 5764 5764 5765 5765 5766 5766 5767 5767 5768 5769 5769 5770 5773 5775 5777 5779 5781 5783 5785 5787 5789 5791 5792
5764 5763 5762 5761 5760 5760 5759 5759 5758 5758 5757 5757 5757 5757 5757 5757 5757 5757 5757 5757 5758 5758 5759 5760 5760 5761 5761 5762 5763 5763 5764 5765 5766 5767 5769 5771 5772 5774 5776 5778 5780 5781 5782
5759 5757 5756 5755 5754 5753 5752 5752 5752 5751 5751 5750 5750 5751 5751 5751 5751 5751 5751 5752 5752 5753 5753 5754 5755 5755 5756 5757 5757 5758 5759 5759 5760 5761 5762 5763 5764 5765 5767 5768 5770 5771 5772